TimeCDT,TemperatureF,Dew PointF,Humidity,Sea Level PressureIn,VisibilityMPH,Wind Direction,Wind SpeedMPH,Gust SpeedMPH,PrecipitationIn,Events,Conditions,WindDirDegrees,DateUTC
12:52 AM,68.0,66.0,93,29.97,10.0,South,9.2,-,N/A,,Scattered Clouds,190,2013-06-16 05:52:00
1:52 AM,68.0,66.0,93,29.95,10.0,South,10.4,-,N/A,,Clear,170,2013-06-16 06:52:00
2:52 AM,68.0,66.0,93,29.94,10.0,South,9.2,-,N/A,,Mostly Cloudy,170,2013-06-16 07:52:00
3:52 AM,68.0,66.0,93,29.97,10.0,SW,3.5,-,N/A,,Mostly Cloudy,220,2013-06-16 08:52:00
4:52 AM,68.0,66.0,93,29.97,10.0,SSE,6.9,-,N/A,,Mostly Cloudy,160,2013-06-16 09:52:00
5:52 AM,69.1,66.0,90,29.98,10.0,ESE,3.5,-,N/A,,Overcast,110,2013-06-16 10:52:00
6:52 AM,69.1,66.9,93,29.99,10.0,SSE,6.9,-,N/A,,Overcast,150,2013-06-16 11:52:00
7:52 AM,71.1,68.0,90,29.98,10.0,South,8.1,-,N/A,,Mostly Cloudy,170,2013-06-16 12:52:00
8:49 AM,71.6,68.0,88,30.02,10.0,South,9.2,-,N/A,Thunderstorm,Thunderstorm,180,2013-06-16 13:49:00
8:52 AM,72.0,68.0,87,29.99,10.0,South,9.2,-,N/A,Thunderstorm,Thunderstorm,180,2013-06-16 13:52:00
9:04 AM,72.0,69.1,91,30.02,10.0,SSW,8.1,-,N/A,Thunderstorm,Overcast,200,2013-06-16 14:04:00
9:20 AM,73.0,69.1,87,30.02,8.0,South,5.8,-,0.02,Rain,Light Rain,190,2013-06-16 14:20:00
9:52 AM,73.9,70.0,87,29.99,10.0,South,5.8,-,0.02,,Mostly Cloudy,180,2013-06-16 14:52:00
10:52 AM,80.1,69.1,69,29.98,10.0,SSW,9.2,-,N/A,,Partly Cloudy,200,2013-06-16 15:52:00
11:52 AM,82.0,70.0,67,29.98,10.0,SW,9.2,-,N/A,,Mostly Cloudy,230,2013-06-16 16:52:00
12:52 PM,84.0,70.0,63,29.96,10.0,SW,13.8,-,N/A,,Partly Cloudy,220,2013-06-16 17:52:00
1:52 PM,86.0,70.0,59,29.94,10.0,WSW,12.7,-,N/A,,Scattered Clouds,240,2013-06-16 18:52:00
2:52 PM,86.0,70.0,59,29.94,10.0,SW,10.4,-,N/A,,Partly Cloudy,230,2013-06-16 19:52:00
3:52 PM,87.1,71.1,59,29.92,10.0,West,8.1,-,N/A,,Clear,270,2013-06-16 20:52:00
4:52 PM,87.1,71.1,59,29.91,10.0,WNW,5.8,-,N/A,,Clear,290,2013-06-16 21:52:00
5:52 PM,86.0,70.0,59,29.91,10.0,West,6.9,-,N/A,,Partly Cloudy,260,2013-06-16 22:52:00
6:52 PM,84.9,70.0,61,29.88,10.0,West,4.6,-,N/A,,Clear,260,2013-06-16 23:52:00
7:52 PM,82.0,73.0,74,29.90,10.0,SW,5.8,-,N/A,,Clear,220,2013-06-17 00:52:00
8:17 PM,81.0,73.0,77,29.94,10.0,SSW,4.6,-,N/A,Thunderstorm,Mostly Cloudy,210,2013-06-17 01:17:00
8:47 PM,78.8,69.8,74,29.94,10.0,SSE,17.3,23.0,N/A,,Mostly Cloudy,160,2013-06-17 01:47:00
8:52 PM,78.1,66.9,68,29.91,10.0,SSE,15.0,21.9,N/A,,Mostly Cloudy,160,2013-06-17 01:52:00
9:12 PM,73.9,61.0,64,29.96,10.0,SE,26.5,33.4,N/A,Thunderstorm,Overcast,140,2013-06-17 02:12:00
9:19 PM,72.0,62.1,71,29.97,10.0,ESE,11.5,24.2,N/A,Thunderstorm,Thunderstorm,120,2013-06-17 02:19:00
9:34 PM,71.1,63.0,75,29.97,10.0,SE,12.7,21.9,N/A,Thunderstorm,Overcast,130,2013-06-17 02:34:00
9:52 PM,71.1,62.1,73,29.93,10.0,SSE,9.2,-,N/A,,Overcast,160,2013-06-17 02:52:00
10:52 PM,72.0,64.9,78,29.95,10.0,SSE,9.2,-,N/A,,Scattered Clouds,150,2013-06-17 03:52:00
11:11 PM,73.0,64.0,73,29.99,10.0,NNE,16.1,-,N/A,Thunderstorm,Mostly Cloudy,30,2013-06-17 04:11:00
11:52 PM,69.1,62.1,78,29.97,10.0,North,13.8,-,N/A,Thunderstorm,Thunderstorm,10,2013-06-17 04:52:00